User: anonymous   Login
Location: Unspecified
(0.0000°N, 0.0000°E)
Time: 03:11:47
(UTC+01:00)
Language:

Cosmos 1758 - Orbit

View from above orbital plane
View from above orbital plane
View from above satellite
View from above satellite

Ground track
Ground track

The orbit data is extracted from the following two-line orbital elements,

1 16791U 86046A   17081.73310175 +.00000046 +00000-0 +12010-5 0  9991
2 16791 082.4684 116.3126 0017340 028.6420 331.5754 15.04341427672683
Epoch (UTC): 22 March 2017 17:35:39
Eccentricity: 0.0017340
inclination: 82.4684°
perigee height: 541 km
apogee height: 565 km
right ascension of ascending node: 116.3126°
argument of perigee: 28.6420°
revolutions per day: 15.04341427
mean anomaly at epoch: 331.5754°
orbit number at epoch: 67268

The dashed part of the orbit path shows where the satellite is in the earth's shadow,  

DLR